Location: Newark
(41.0000°N, 28.9500°W)
Time: 23:22:54
(UTC+00:00)

N. Korean satellite - Pass Details

Date: 29 January 2020
Orbit: 456 x 505 km, 97.2° (Epoch: 24 February)

Event Time Altitude Azimuth Distance (km) Brightness Sun altitude
Rises 07:09:45 0° 22° (NNE) 2,556 10.5 -22.7°
Reaches altitude 10° 07:11:59 10° 34° (NE) 1,680 9.6 -22.3°
Maximum altitude 07:15:13 30° 97° (E) 907 8.6 -21.7°
Drops below altitude 10° 07:18:27 10° 160° (SSE) 1,690 9.6 -21.1°
Sets 07:20:42 0° 171° (S) 2,574 10.4 -20.7°
